Flag for U.S.A. Weather past 2 weeks in Salina, Kansas, U.S.A.

Now
79 °F

Clear.


Feels Like: 82 °F
Forecast: 77 / 101 °F
Wind: 20 mph from Southwest

Location: Salina Municipal Airport

Current Time: Jul 25, 2014 at 7:01:54 AM

Latest Report: Jul 25, 2014 at 5:53 AM


Visibility: 10 mi

Pressure: 29.79 "Hg

Humidity: 72%

Dew point: 69 °F

Location of SalinaLocation

Historic Weather in Salina — Graph

°F

Salina temperature yesterday

Maximum temperature yesterday: 95 °F (at 3:53 PM)
Minimum temperature yesterday: 67 °F (at 3:53 AM)
Average temperature yesterday: 82 °F

Past Weeks' High & Low Weather Summary

 TemperatureHumidityPressure
High104 °F (Jul 21, 2:53 PM)90% (Jul 10, 5:53 AM)30.19 "Hg (Jul 10, 5:53 AM)
Low56 °F (Jul 15, 4:53 AM)29% (Jul 15, 4:53 PM)29.77 "Hg (Jul 20, 6:53 PM)
Average78 °F61%29.98 "Hg
* Reported Jul 10 5:53 AM — Jul 25 5:53 AM, Salina, Weather by CustomWeather, © 2014

Note: Actual official high and low records may vary slightly from our data, if they occured in-between our weather recording intervals... More about our weather records

Advertising

Salina weather history for previous 24 hours

 ConditionsComfort  
Time TempWeatherWind HumidityBarometerVisibility
5:53 AM
Jul 25
79 °FClear.20 mph72%29.79 "Hg10 mi
4:53 AM79 °FClear.18 mph72%29.79 "Hg10 mi
3:53 AM80 °FClear.17 mph71%29.81 "Hg10 mi
2:53 AM80 °FClear.15 mph71%29.82 "Hg10 mi
1:53 AM81 °FClear.18 mph67%29.83 "Hg10 mi
12:53 AM82 °FClear.18 mph63%29.84 "Hg10 mi
11:53 PM
Jul 24
82 °FClear.17 mph63%29.85 "Hg10 mi
10:53 PM83 °FClear.17 mph59%29.85 "Hg10 mi
9:53 PM84 °FClear.14 mph57%29.92 "Hg10 mi
8:53 PM87 °FSunny.16 mph51%29.86 "Hg10 mi
7:53 PM90 °FSunny.21 mph47%29.86 "Hg10 mi
6:53 PM93 °FSunny.16 mph42%29.86 "Hg10 mi
5:53 PM94 °FSunny.22 mph40%29.87 "Hg10 mi
4:53 PM95 °FSunny.18 mph39%29.90 "Hg10 mi
3:53 PM95 °FSunny.25 mph39%29.92 "Hg10 mi
2:53 PM94 °FSunny.22 mph38%29.95 "Hg10 mi
1:53 PM93 °FSunny.15 mph40%29.97 "Hg10 mi
12:53 PM90 °FSunny.15 mph43%30.00 "Hg10 mi
11:53 AM87 °FSunny.18 mph48%30.03 "Hg10 mi
10:53 AM85 °FSunny.16 mph51%30.04 "Hg10 mi
9:53 AMN/ASunny.16 mphN/A30.10 "HgN/A
8:53 AM76 °FSunny.12 mph67%30.06 "Hg10 mi
7:53 AM72 °FSunny.9 mph73%30.06 "Hg10 mi
Weather by CustomWeather, © 2014

See weather overviewHow to use our weather pages